| time (UTC) | temp F | wind direction | speed MPH | gust MPH | rain 1hr in | rain 24hr in | rain mn in | humidity % | barometer mb |
| 20260902112051 | 85 | 0.0 | 0.0 | 0.00 | 0.00 | 0.00 | 38 | 1021.5 | |
| 20260902111251 | 85 | 0.0 | 0.0 | 0.00 | 0.00 | 0.00 | 38 | 1021.6 | |
| 20260902110451 | 85 | 0.0 | 0.0 | 0.00 | 0.00 | 0.00 | 38 | 1021.5 | |
| 20260902105651 | 84 | 0.0 | 0.0 | 0.00 | 0.00 | 0.00 | 40 | 1021.5 | |
| 20260902104851 | 84 | 0.0 | 0.0 | 0.00 | 0.00 | 0.00 | 40 | 1021.4 | |
| 20260902104051 | 84 | 0.0 | 0.0 | 0.00 | 0.00 | 0.00 | 42 | 1021.5 | |
| 20260902103251 | 84 | 0.0 | 0.0 | 0.00 | 0.00 | 0.00 | 42 | 1021.4 | |
| 20260902102451 | 84 | 0.0 | 0.0 | 0.00 | 0.00 | 0.00 | 43 | 1021.5 | |
| 20260902101651 | 84 | 0.0 | 0.0 | 0.00 | 0.00 | 0.00 | 43 | 1021.5 | |
| 20260902100851 | 84 | 0.0 | 0.0 | 0.00 | 0.00 | 0.00 | 43 | 1021.4 | |
| 20260902100051 | 84 | 0.0 | 0.0 | 0.00 | 0.00 | 0.00 | 44 | 1021.2 | |
| 20260902095251 | 84 | 0.0 | 0.0 | 0.00 | 0.00 | 0.00 | 44 | 1021.2 | |
| 20260902094451 | 84 | 0.0 | 0.0 | 0.00 | 0.00 | 0.00 | 43 | 1021.2 | |
| 20260902093651 | 84 | 0.0 | 0.0 | 0.00 | 0.00 | 0.00 | 47 | 1021.3 | |
| 20260902092051 | 83 | 0.0 | 0.0 | 0.00 | 0.00 | 0.00 | 48 | 1021.0 | |
| 20260902091251 | 83 | 0.0 | 0.0 | 0.00 | 0.00 | 0.00 | 47 | 1021.0 | |
| 20260902090451 | 83 | 0.0 | 0.0 | 0.00 | 0.00 | 0.00 | 47 | 1020.9 | |
| 20260902085651 | 83 | 0.0 | 0.0 | 0.00 | 0.00 | 0.00 | 50 | 1020.8 | |
| 20260902084851 | 82 | 0.0 | 0.0 | 0.00 | 0.00 | 0.00 | 48 | 1020.8 | |
| 20260902081916 | 83 | 0.0 | 0.0 | 0.00 | 0.00 | 0.00 | 48 | 1020.6 |